This demonstration page uses our WeatherBlox Daily Observations layout. Learn more.

Left ArrowRight Arrow

40.92945, -100.16068

Hourly Observations for August 29, 2020

Temp ( °F °C ) Dew Point ( °F °C ) Humidity (%) Winds ( mph kmh ) Pressure ( in mb ) Visibility ( mi km ) Precip ( " mm )
12:15 am 00:15 Clear 65 18.6 61 16.2 86 86 WNW 7 11 29.98 1015 10 16.0934 0 0
12:35 am 00:35 Clear 65 18.3 61 16 87 87 NNW 6 9 29.98 1015 10 16.0934 0 0
12:55 am 00:55 Clear 65 18.1 61 16 88 88 NW 5 7 29.99 1016 10 16.0934 0 0
1:15 am 01:15 Clear 64 17.6 60 15.7 89 89 NW 6 9 30 1016 10 16.0934 0 0
1:35 am 01:35 Clear 64 17.6 60 15.8 89 89 NNW 5 7 30 1016 10 16.0934 0 0
1:55 am 01:55 Clear 63 17.3 61 16 92 92 N 3 6 30 1016 10 16.0934 0 0
2:15 am 02:15 Clear 64 17.5 60 15.7 89 89 N 3 6 29.99 1016 10 16.0934 0 0
2:35 am 02:35 Clear 63 17.4 60 15.5 89 89 N 3 6 29.98 1015 10 16.0934 0 0
2:55 am 02:55 Clear 63 17.1 59 15.2 89 89 N 6 9 29.99 1015 10 16.0934 0 0
3:15 am 03:15 Clear 63 17.1 59 15 88 88 N 7 11 30 1016 10 16.0934 0 0
3:35 am 03:35 Clear 63 17 59 14.8 87 87 N 6 9 30.01 1016 10 16.0934 0 0
3:55 am 03:55 Clear 62 16.7 58 14.5 87 87 NNE 6 9 30.01 1016 10 16.0934 0 0
4:15 am 04:15 Clear 62 16.4 58 14.5 89 89 N 6 9 30 1016 10 16.0934 0 0
4:35 am 04:35 Clear 61 16.2 57 14.1 87 87 NE 5 7 30.02 1016 10 16.0934 0 0
4:55 am 04:55 Clear 61 16 57 14 88 88 NE 5 7 30.02 1016 10 16.0934 0 0
5:15 am 05:15 Clear 60 15.8 57 13.8 88 88 N 6 9 30.03 1017 10 16.0934 0 0
5:35 am 05:35 Clear 60 15.5 57 13.7 89 89 N 5 7 30.03 1017 10 16.0934 0 0
5:55 am 05:55 Clear 59 15.1 56 13.6 91 91 N 5 7 30.03 1017 10 16.0934 0 0
6:15 am 06:15 Clear 59 15 56 13.5 91 91 N 3 6 30.04 1017 10 16.0934 0 0
6:35 am 06:35 Clear 58 14.7 56 13.1 90 90 S 3 6 30.06 1018 10 16.0934 0 0
6:55 am 06:55 Clear 59 15 55 13 88 88 Calm 30.06 1018 10 16.0934 0 0
7:15 am 07:15 Sunny 58 14.5 55 12.8 90 90 Calm 30.06 1018 10 16.0934 0 0
7:35 am 07:35 Sunny 58 14.5 55 13 91 91 Calm 30.06 1018 10 16.0934 0 0
7:55 am 07:55 Sunny 58 14.2 55 13 93 93 NNE 3 6 30.06 1018 10 16.0934 0 0
8:15 am 08:15 Sunny 58 14.5 55 13 91 91 Calm 30.07 1018 10 16.0934 0 0
8:35 am 08:35 Sunny 59 15 56 13.2 89 89 Calm 30.06 1018 10 16.0934 0 0
8:55 am 08:55 Sunny 59 15 56 13.1 89 89 Calm 30.06 1018 10 16.0934 0 0
9:15 am 09:15 Sunny 60 15.6 56 13.5 87 87 N 3 6 30.05 1018 10 16.0934 0 0
9:35 am 09:35 Sunny 62 16.8 56 13.5 81 81 NE 7 11 30.03 1017 10 16.0934 0 0
9:55 am 09:55 Sunny 65 18.2 56 13.3 73 73 ENE 5 7 30.02 1017 10 16.0934 0 0
10:15 am 10:15 Sunny 67 19.5 55 12.5 64 64 ENE 8 13 30 1016 10 16.0934 0 0
10:35 am 10:35 Sunny 68 20.1 52 11.2 57 57 NE 9 15 30 1016 10 16.0934 0 0
10:55 am 10:55 Sunny 70 21.1 52 10.9 52 52 E 9 15 29.99 1016 10 16.0934 0 0
11:15 am 11:15 Sunny 70 21.1 50 9.9 49 49 E 5 7 29.98 1015 10 16.0934 0 0
11:35 am 11:35 Sunny 72 22.1 49 9.6 45 45 E 7 11 29.97 1015 10 16.0934 0 0
11:55 am 11:55 Sunny 73 22.5 48 8.8 42 42 ENE 9 15 29.96 1015 10 16.0934 0 0
12:15 pm 12:15 Sunny 73 23 47 8.6 40 40 E 9 15 29.96 1014 10 16.0934 0 0
12:35 pm 12:35 Sunny 74 23.6 46 7.9 37 37 ENE 6 9 29.95 1014 10 16.0934 0 0
12:55 pm 12:55 Sunny 74 23.6 45 7.4 35 35 E 5 7 29.95 1014 10 16.0934 0 0
1:15 pm 13:15 Sunny 75 24.1 45 7.3 34 34 E 8 13 29.95 1014 10 16.0934 0 0
1:35 pm 13:35 Sunny 75 24.1 45 7 33 33 ESE 3 6 29.94 1014 7 11.26538 0 0
1:55 pm 13:55 Sunny 76 24.3 43 6.3 31 31 ESE 7 11 29.93 1013 10 16.0934 0 0
2:15 pm 14:15 Sunny 76 24.5 46 7.5 34 34 ESE 3 6 29.91 1013 10 16.0934 0 0
2:35 pm 14:35 Sunny 78 25.4 43 6.1 29 29 ESE 9 15 29.91 1013 10 16.0934 0 0
2:55 pm 14:55 Sunny 77 24.9 46 8 34 34 SE 8 13 29.91 1013 10 16.0934 0 0
3:15 pm 15:15 Sunny 77 25.1 44 6.7 31 31 ESE 6 9 29.89 1012 10 16.0934 0 0
3:35 pm 15:35 Sunny 77 25.1 46 7.9 33 33 ESE 9 15 29.88 1012 10 16.0934 0 0
3:55 pm 15:55 Sunny 78 25.8 47 8.2 33 33 E 9 15 29.86 1011 10 16.0934 0 0
4:15 pm 16:15 Sunny 78 25.6 48 8.7 34 34 ESE 8 13 29.86 1011 10 16.0934 0 0
4:35 pm 16:35 Sunny 78 25.5 49 9.2 36 36 ESE 9 15 29.87 1011 10 16.0934 0 0
4:55 pm 16:55 Sunny 79 25.9 47 8.6 33 33 SE 9 15 29.85 1011 10 16.0934 0 0
5:15 pm 17:15 Sunny 78 25.7 46 7.9 32 32 ESE 6 9 29.84 1011 10 16.0934 0 0
5:35 pm 17:35 Sunny 78 25.7 46 7.5 31 31 E 8 13 29.83 1010 10 16.0934 0 0
5:55 pm 17:55 Sunny 79 26.1 45 7.2 30 30 ESE 8 13 29.82 1010 10 16.0934 0 0
6:15 pm 18:15 Sunny 79 26 45 7.1 30 30 ESE 10 17 29.81 1010 10 16.0934 0 0
6:35 pm 18:35 Sunny 78 25.4 46 7.6 32 32 SSE 10 17 29.83 1010 10 16.0934 0 0
6:55 pm 18:55 Sunny 76 24.2 44 6.9 33 33 SSE 10 17 29.83 1010 10 16.0934 0 0
7:15 pm 19:15 Sunny 75 23.7 47 8.3 37 37 SE 7 11 29.83 1010 10 16.0934 0 0
7:35 pm 19:35 Sunny 74 23.5 48 9 40 40 SE 7 11 29.82 1010 10 16.0934 0 0
7:55 pm 19:55 Sunny 73 23 50 9.8 43 43 SE 6 9 29.84 1010 10 16.0934 0 0
8:15 pm 20:15 Sunny 70 21.1 51 10.6 51 51 SSE 7 11 29.85 1011 10 16.0934 0 0
8:35 pm 20:35 Clear 69 20.5 53 11.8 58 58 SSE 6 9 29.86 1011 10 16.0934 0 0
8:55 pm 20:55 Clear 68 20.2 54 12.2 60 60 SSE 8 13 29.86 1011 10 16.0934 0 0
9:15 pm 21:15 Clear 69 20.8 51 10.6 52 52 SE 8 13 29.85 1011 10 16.0934 0 0
9:35 pm 21:35 Clear 70 21.3 49 9.7 48 48 SE 9 15 29.83 1010 10 16.0934 0 0
9:55 pm 21:55 Clear 69 20.7 50 10 50 50 SE 6 9 29.84 1010 10 16.0934 0 0
10:15 pm 22:15 Clear 69 20.5 51 10.6 53 53 ESE 9 15 29.84 1010 10 16.0934 0 0
10:35 pm 22:35 Clear 68 20.1 52 11 56 56 ESE 8 13 29.83 1010 10 16.0934 0 0
10:55 pm 22:55 Clear 67 19.7 53 11.5 59 59 SE 6 9 29.83 1010 10 16.0934 0 0
11:15 pm 23:15 Clear 67 19.5 53 11.5 60 60 SSE 7 11 29.84 1010 10 16.0934 0 0
11:35 pm 23:35 Clear 66 19 53 11.7 63 63 SE 7 11 29.84 1011 10 16.0934 0 0
11:55 pm 23:55 Clear 66 19 53 11.6 62 62 ESE 5 7 29.83 1010 10 16.0934 0 0

Powered by AerisWeather